RYR29YF LIPE-GCFV

Flight info

Callsign RYR29YF
Flight time N/A
Altitude 35000
Route LUPOS DCT BORDI DCT PADKO UM984 DIVKO G7 MAMES M984 BISBA DCT RODRA M985 MGA N851 VJF L82 RUNAX UL82 IBALU UN857 TERTO
Aircraft B738/M-SDE3FGILRWY/SB1

Departure

Time N/A
Airport Bologna Guglielmo Marconi Airport (LIPE)

Arrival

Time 2026-05-05 14:51
Airport Fuerteventura Airport (GCFV)
Time Latitude Longitude Altitude Speed Heading
2026-05-05 14:25 29.32008 -13.21212 27225 ft 298 kts 213°
2026-05-05 14:25 29.30136 -13.22231 26858 ft 298 kts 213°
2026-05-05 14:26 29.28266 -13.23253 26492 ft 297 kts 213°
2026-05-05 14:26 29.26399 -13.24275 26124 ft 297 kts 213°
2026-05-05 14:26 29.24540 -13.25293 25757 ft 297 kts 213°
2026-05-05 14:26 29.22677 -13.26314 25389 ft 297 kts 213°
2026-05-05 14:27 29.20815 -13.27335 25022 ft 296 kts 213°
2026-05-05 14:27 29.18957 -13.28352 24646 ft 296 kts 213°
2026-05-05 14:27 29.17133 -13.29350 24279 ft 299 kts 213°
2026-05-05 14:27 29.15204 -13.30406 23890 ft 302 kts 213°
2026-05-05 14:28 29.13303 -13.31444 23505 ft 303 kts 212°
2026-05-05 14:28 29.11404 -13.32482 23122 ft 302 kts 212°
2026-05-05 14:28 29.09518 -13.33513 22741 ft 300 kts 212°
2026-05-05 14:28 29.07635 -13.34541 22360 ft 300 kts 212°
2026-05-05 14:29 29.05753 -13.35567 21980 ft 300 kts 212°
2026-05-05 14:29 29.03868 -13.36597 21599 ft 299 kts 212°
2026-05-05 14:29 29.01996 -13.37617 21223 ft 298 kts 212°
2026-05-05 14:29 29.00130 -13.38635 20847 ft 296 kts 212°
2026-05-05 14:30 28.98273 -13.39647 20471 ft 294 kts 212°
2026-05-05 14:30 28.96431 -13.40650 20099 ft 293 kts 212°
2026-05-05 14:30 28.94598 -13.41648 19729 ft 291 kts 212°
2026-05-05 14:30 28.92771 -13.42645 19361 ft 290 kts 212°
2026-05-05 14:31 28.90953 -13.43633 18993 ft 289 kts 212°
2026-05-05 14:31 28.89146 -13.44620 18628 ft 288 kts 212°
2026-05-05 14:31 28.87344 -13.45605 18264 ft 286 kts 212°
2026-05-05 14:31 28.85549 -13.46584 17901 ft 285 kts 212°
2026-05-05 14:32 28.83757 -13.47561 17540 ft 284 kts 212°
2026-05-05 14:32 28.81980 -13.48532 17181 ft 283 kts 212°
2026-05-05 14:32 28.80203 -13.49503 16821 ft 283 kts 211°
2026-05-05 14:32 28.78433 -13.50468 16463 ft 282 kts 211°
2026-05-05 14:33 28.76663 -13.51433 16105 ft 282 kts 211°
2026-05-05 14:33 28.74894 -13.52395 15749 ft 281 kts 211°
2026-05-05 14:33 28.73125 -13.53356 15391 ft 281 kts 211°
2026-05-05 14:33 28.71361 -13.54313 15035 ft 280 kts 211°
2026-05-05 14:34 28.69600 -13.55267 14679 ft 280 kts 211°
2026-05-05 14:34 28.67844 -13.56218 14325 ft 280 kts 210°
2026-05-05 14:34 28.66088 -13.57169 13971 ft 279 kts 210°
2026-05-05 14:34 28.64330 -13.58120 13616 ft 279 kts 210°
2026-05-05 14:35 28.62580 -13.59067 13262 ft 279 kts 210°
2026-05-05 14:35 28.60824 -13.60019 12909 ft 279 kts 210°
2026-05-05 14:35 28.59072 -13.60964 12555 ft 279 kts 210°
2026-05-05 14:35 28.57288 -13.61927 12195 ft 279 kts 209°
2026-05-05 14:36 28.55539 -13.62873 11842 ft 279 kts 209°
2026-05-05 14:36 28.53781 -13.63824 11485 ft 279 kts 209°
2026-05-05 14:36 28.52009 -13.64733 11132 ft 280 kts 206°
2026-05-05 14:36 28.50191 -13.65550 10772 ft 281 kts 204°
2026-05-05 14:37 28.48357 -13.66336 10398 ft 282 kts 204°
2026-05-05 14:37 28.46522 -13.67137 10023 ft 283 kts 203°
2026-05-05 14:37 28.44573 -13.67544 9639 ft 289 kts 183°
2026-05-05 14:37 28.42560 -13.67341 9270 ft 292 kts 175°
2026-05-05 14:38 28.40543 -13.67026 8894 ft 293 kts 175°
2026-05-05 14:38 28.38521 -13.66722 8472 ft 295 kts 175°
2026-05-05 14:38 28.36468 -13.66425 8046 ft 297 kts 175°
2026-05-05 14:38 28.34413 -13.66139 7621 ft 299 kts 175°
2026-05-05 14:39 28.32348 -13.65792 7190 ft 301 kts 167°
2026-05-05 14:39 28.30398 -13.64981 6777 ft 303 kts 163°
2026-05-05 14:39 28.28321 -13.64563 6461 ft 298 kts 178°
2026-05-05 14:39 28.26272 -13.64559 6206 ft 291 kts 182°
2026-05-05 14:40 28.24272 -13.64597 5955 ft 283 kts 182°
2026-05-05 14:40 28.22326 -13.64641 5703 ft 276 kts 182°
2026-05-05 14:40 28.20427 -13.64697 5451 ft 271 kts 182°
2026-05-05 14:40 28.18547 -13.64820 5207 ft 269 kts 185°
2026-05-05 14:41 28.16708 -13.65130 4958 ft 267 kts 193°
2026-05-05 14:41 28.14993 -13.65854 4773 ft 262 kts 208°
2026-05-05 14:41 28.13460 -13.67026 4274 ft 271 kts 220°
2026-05-05 14:41 28.12170 -13.68554 4096 ft 261 kts 234°
2026-05-05 14:42 28.11353 -13.70313 3951 ft 250 kts 252°
2026-05-05 14:42 28.11019 -13.72212 3769 ft 242 kts 265°
2026-05-05 14:42 28.11077 -13.74080 3581 ft 234 kts 280°
2026-05-05 14:42 28.11449 -13.75837 3461 ft 224 kts 289°
2026-05-05 14:43 28.12005 -13.77437 3399 ft 215 kts 297°
2026-05-05 14:43 28.12731 -13.78927 3292 ft 218 kts 306°
2026-05-05 14:43 28.13306 -13.79867 3241 ft 220 kts 308°
2026-05-05 14:43 28.14599 -13.81690 3144 ft 223 kts 315°
2026-05-05 14:44 28.15727 -13.82954 2909 ft 233 kts 321°
2026-05-05 14:44 28.16573 -13.83707 2724 ft 232 kts 328°
2026-05-05 14:44 28.17928 -13.84616 2588 ft 218 kts 336°
2026-05-05 14:44 28.19254 -13.85274 2684 ft 200 kts 341°
2026-05-05 14:45 28.20522 -13.85807 2664 ft 190 kts 344°
2026-05-05 14:45 28.21747 -13.86265 2655 ft 182 kts 346°
2026-05-05 14:45 28.22950 -13.86680 2516 ft 180 kts 348°
2026-05-05 14:45 28.24144 -13.86999 2525 ft 169 kts 352°
2026-05-05 14:46 28.25276 -13.87205 2510 ft 159 kts 359°
2026-05-05 14:46 28.26359 -13.87233 2482 ft 153 kts
2026-05-05 14:46 28.27343 -13.87178 2668 ft 135 kts
2026-05-05 14:46 28.28284 -13.87114 2559 ft 138 kts 10°
2026-05-05 14:47 28.29254 -13.86950 2393 ft 145 kts
2026-05-05 14:47 28.30289 -13.86961 2244 ft 151 kts
2026-05-05 14:47 28.31361 -13.86962 2172 ft 153 kts
2026-05-05 14:47 28.32420 -13.86933 2099 ft 155 kts
2026-05-05 14:48 28.33505 -13.86893 2011 ft 157 kts
2026-05-05 14:48 28.34586 -13.86795 1999 ft 154 kts
2026-05-05 14:48 28.35645 -13.86719 1904 ft 149 kts
2026-05-05 14:48 28.36660 -13.86653 1758 ft 144 kts
2026-05-05 14:49 28.37664 -13.86623 1643 ft 148 kts
2026-05-05 14:49 28.38697 -13.86583 1485 ft 149 kts
2026-05-05 14:49 28.39754 -13.86561 1227 ft 155 kts
2026-05-05 14:49 28.40841 -13.86545 923 ft 154 kts
2026-05-05 14:50 28.41899 -13.86493 593 ft 150 kts
2026-05-05 14:50 28.42923 -13.86461 263 ft 147 kts
2026-05-05 14:50 28.43907 -13.86426 90 ft 133 kts
2026-05-05 14:50 28.44773 -13.86391 66 ft 111 kts
2026-05-05 14:51 28.45261 -13.86370 66 ft 36 kts
2026-05-05 14:51 28.45372 -13.86391 65 ft 3 kts 313°